Weather History for Pinedale, WY

Change the Weather History Date:

Wednesday, April 3, 2013

  Actual Average (KBPI) Record (KBPI)
Temperature  
Mean Temperature 37 °F 34 °F  
Max Temperature 55 °F 49 °F 64 °F (1990)
Min Temperature 19 °F 19 °F 0 °F (1999)
Degree Days  
Heating Degree Days 28 31  
Month to date heating degree days 94  
Since 1 July heating degree days 8789  
Cooling Degree Days 0 0  
Month to date cooling degree days 0  
Year to date cooling degree days 0  
Moisture  
Dew Point 20 °F    
Average Humidity 55    
Maximum Humidity 93    
Minimum Humidity 18    
Precipitation  
Precipitation 0.00 in 0.02 in 0.07 in (1998)
Month to date precipitation 0.05  
Year to date precipitation 1.15  
Sea Level Pressure  
Sea Level Pressure 30.16 in    
Wind  
Wind Speed 6 mph (NW)    
Max Wind Speed 22 mph    
Max Gust Speed 29 mph    
Visibility 10 miles    
Events      
T = Trace of Precipitation, MM = Missing Value Source: NWS Daily Summary

Daily Weather History Graph

Daily Weather History Graph

Search for Another Location

Airport:

Trip Planner

Search our weather history database for the weather conditions in past years. The results will help you decide how hot, cold, wet, or windy it might be!

Date:

Astronomy

Apr. 03, 2013 Rise Set
Actual Time 6:57 AM MDT 7:48 PM MDT
Civil Twilight 6:28 AM MDT 8:16 PM MDT
Nautical Twilight 5:54 AM MDT 8:50 PM MDT
Astronomical Twilight 5:19 AM MDT 9:26 PM MDT
Moon 2:50 AM MDT (4/3) 12:55 PM MDT (4/3)
Length of Visible Light 13h 48m
Length of Day
12h 50m
Last Quarter, 44% of the Moon is Illuminated
Apr 3
Last Quarter
Apr 10
New
Apr 18
First Quarter
Apr 25
Full
May 2
Last Quarter

Hourly Weather History & Observations

Time (MDT) Temp. Windchill Dew Point Humidity Pressure Visibility Wind Dir Wind Speed Gust Speed Precip Events Conditions
12:15 AM 32.0 °F 27.5 °F 15.8 °F 51% 30.13 in 10.0 mi NNE 4.6 mph - N/A   Scattered Clouds
12:35 AM 30.2 °F 26.7 °F 15.8 °F 55% 30.14 in 10.0 mi WNW 3.5 mph - N/A   Scattered Clouds
12:55 AM 30.2 °F - 15.8 °F 55% 30.14 in 10.0 mi Calm Calm - N/A   Clear
1:15 AM 28.4 °F 24.6 °F 15.8 °F 59% 30.14 in 10.0 mi North 3.5 mph - N/A   Clear
1:35 AM 28.4 °F - 14.0 °F 55% 30.14 in 10.0 mi Calm Calm - N/A   Clear
1:55 AM 24.8 °F 19.1 °F 14.0 °F 64% 30.15 in 10.0 mi WNW 4.6 mph - N/A   Clear
2:15 AM 24.8 °F 17.9 °F 15.8 °F 69% 30.15 in 10.0 mi WNW 5.8 mph - N/A   Clear
2:35 AM 23.0 °F 17.0 °F 15.8 °F 74% 30.14 in 10.0 mi NW 4.6 mph - N/A   Clear
2:55 AM 21.2 °F 13.6 °F 14.0 °F 74% 30.15 in 10.0 mi WNW 5.8 mph - N/A   Clear
3:15 AM 21.2 °F 14.9 °F 14.0 °F 74% 30.14 in 10.0 mi WNW 4.6 mph - N/A   Clear
3:35 AM 21.2 °F 14.9 °F 15.8 °F 80% 30.14 in 10.0 mi NW 4.6 mph - N/A   Clear
3:55 AM 21.2 °F 14.9 °F 15.8 °F 80% 30.14 in 10.0 mi NW 4.6 mph - N/A   Clear
4:15 AM 23.0 °F 17.0 °F 17.6 °F 80% 30.14 in 10.0 mi NNW 4.6 mph - N/A   Clear
4:35 AM 21.2 °F 13.6 °F 14.0 °F 74% 30.14 in 10.0 mi WNW 5.8 mph - N/A   Clear
4:55 AM 21.2 °F 11.7 °F 15.8 °F 80% 30.15 in 10.0 mi NW 8.1 mph - N/A   Clear
5:15 AM 19.4 °F 12.8 °F 15.8 °F 86% 30.15 in 10.0 mi West 4.6 mph - N/A   Clear
5:35 AM 19.4 °F 10.4 °F 17.6 °F 93% 30.15 in 10.0 mi West 6.9 mph - N/A   Clear
5:55 AM 19.4 °F 11.5 °F 17.6 °F 93% 30.16 in 10.0 mi West 5.8 mph - N/A   Clear
6:15 AM 19.4 °F 9.5 °F 17.6 °F 93% 30.16 in 10.0 mi WNW 8.1 mph - N/A   Clear
6:35 AM 21.2 °F 14.9 °F 17.6 °F 86% 30.16 in 10.0 mi NW 4.6 mph - N/A   Clear
6:55 AM 21.2 °F 13.6 °F 17.6 °F 86% 30.16 in 10.0 mi NW 5.8 mph - N/A   Clear
7:15 AM 21.2 °F 13.6 °F 17.6 °F 86% 30.17 in 10.0 mi WNW 5.8 mph - N/A   Clear
7:35 AM 21.2 °F 13.6 °F 17.6 °F 86% 30.18 in 10.0 mi WNW 5.8 mph - N/A   Clear
7:55 AM 24.8 °F 17.9 °F 19.4 °F 80% 30.18 in 10.0 mi WNW 5.8 mph - N/A   Clear
8:15 AM 28.4 °F 22.2 °F 21.2 °F 74% 30.18 in 10.0 mi WNW 5.8 mph - N/A   Clear
8:35 AM 32.0 °F 27.5 °F 21.2 °F 64% 30.18 in 10.0 mi WNW 4.6 mph - N/A   Scattered Clouds
8:55 AM 33.8 °F 28.6 °F 21.2 °F 60% 30.19 in 10.0 mi WNW 5.8 mph - N/A   Scattered Clouds
9:15 AM 35.6 °F - 17.6 °F 48% 30.18 in 10.0 mi Calm Calm - N/A   Clear
9:35 AM 39.2 °F - 15.8 °F 39% 30.18 in 10.0 mi Calm Calm - N/A   Clear
9:55 AM 42.8 °F - 15.8 °F 34% 30.17 in 10.0 mi Calm Calm - N/A   Clear
10:15 AM 44.6 °F - 14.0 °F 29% 30.17 in 10.0 mi Calm Calm - N/A   Clear
10:35 AM 46.4 °F 44.3 °F 15.8 °F 29% 30.17 in 10.0 mi WNW 4.6 mph - N/A   Clear
10:55 AM 46.4 °F 45.2 °F 19.4 °F 34% 30.17 in 10.0 mi NNW 3.5 mph - N/A   Clear
11:15 AM 48.2 °F - 21.2 °F 34% 30.17 in 10.0 mi WNW 4.6 mph - N/A   Clear
11:35 AM 50.0 °F - 21.2 °F 32% 30.17 in 10.0 mi NW 5.8 mph - N/A   Clear
11:55 AM 50.0 °F - 19.4 °F 30% 30.17 in 10.0 mi West 5.8 mph - N/A   Clear
12:15 PM 51.8 °F - 17.6 °F 26% 30.17 in 10.0 mi West 6.9 mph 17.3 mph N/A   Clear
12:35 PM 51.8 °F - 17.6 °F 26% 30.16 in 10.0 mi NW 10.4 mph 21.9 mph N/A   Clear
12:55 PM 53.6 °F - 17.6 °F 24% 30.16 in 10.0 mi WNW 8.1 mph - N/A   Clear
1:15 PM 53.6 °F - 17.6 °F 24% 30.16 in 10.0 mi NNW 10.4 mph - N/A   Clear
1:35 PM 53.6 °F - 15.8 °F 22% 30.15 in 10.0 mi WNW 11.5 mph 21.9 mph N/A   Clear
1:55 PM 55.4 °F - 14.0 °F 20% 30.15 in 10.0 mi WNW 15.0 mph 21.9 mph N/A   Clear
2:15 PM 55.4 °F - 12.2 °F 18% 30.15 in 10.0 mi West 12.7 mph 21.9 mph N/A   Clear
2:35 PM 53.6 °F - 17.6 °F 24% 30.15 in 10.0 mi North 10.4 mph - N/A   Clear
2:55 PM 53.6 °F - 17.6 °F 24% 30.15 in 10.0 mi NW 11.5 mph 18.4 mph N/A   Clear
3:15 PM 53.6 °F - 19.4 °F 26% 30.15 in 10.0 mi NW 8.1 mph 18.4 mph N/A   Clear
3:35 PM 53.6 °F - 19.4 °F 26% 30.15 in 10.0 mi WNW 15.0 mph 19.6 mph N/A   Clear
3:55 PM 51.8 °F - 21.2 °F 30% 30.15 in 10.0 mi NW 17.3 mph 23.0 mph N/A   Clear
4:15 PM 51.8 °F - 21.2 °F 30% 30.15 in 10.0 mi NW 8.1 mph 21.9 mph N/A   Clear
4:35 PM 51.8 °F - 23.0 °F 33% 30.14 in 10.0 mi NNW 9.2 mph - N/A   Scattered Clouds
4:55 PM 51.8 °F - 23.0 °F 33% 30.14 in 10.0 mi NW 17.3 mph - N/A   Mostly Cloudy
5:15 PM 53.6 °F - 23.0 °F 30% 30.14 in 10.0 mi NW 17.3 mph - N/A   Mostly Cloudy
5:35 PM 51.8 °F - 23.0 °F 33% 30.14 in 10.0 mi NW 12.7 mph 20.7 mph N/A   Scattered Clouds
5:55 PM 51.8 °F - 19.4 °F 28% 30.14 in 10.0 mi West 15.0 mph 24.2 mph N/A   Scattered Clouds
6:15 PM 51.8 °F - 21.2 °F 30% 30.15 in 10.0 mi WNW 19.6 mph 25.3 mph N/A   Clear
6:35 PM 50.0 °F - 23.0 °F 35% 30.16 in 10.0 mi NW 21.9 mph 27.6 mph N/A   Clear
6:55 PM 48.2 °F - 26.6 °F 43% 30.17 in 10.0 mi NW 20.7 mph 28.8 mph N/A   Clear
7:15 PM 46.4 °F 39.5 °F 28.4 °F 50% 30.18 in 10.0 mi WNW 17.3 mph 21.9 mph N/A   Scattered Clouds
7:35 PM 44.6 °F 39.2 °F 26.6 °F 49% 30.18 in 10.0 mi NW 10.4 mph - N/A   Clear
7:55 PM 41.0 °F 35.8 °F 28.4 °F 61% 30.18 in 10.0 mi NNW 8.1 mph - N/A   Clear
8:15 PM 41.0 °F 36.4 °F 26.6 °F 57% 30.18 in 10.0 mi NNW 6.9 mph - N/A   Clear
8:35 PM 39.2 °F 34.2 °F 26.6 °F 61% 30.19 in 10.0 mi NNW 6.9 mph - N/A   Clear
8:55 PM 35.6 °F 30.7 °F 26.6 °F 70% 30.19 in 10.0 mi West 5.8 mph - N/A   Clear
9:15 PM 33.8 °F 28.6 °F 26.6 °F 75% 30.20 in 10.0 mi West 5.8 mph - N/A   Clear
9:35 PM 33.8 °F 28.6 °F 26.6 °F 75% 30.21 in 10.0 mi West 5.8 mph - N/A   Clear
9:55 PM 32.0 °F 26.4 °F 26.6 °F 80% 30.21 in 10.0 mi West 5.8 mph - N/A   Clear
10:15 PM 32.0 °F 26.4 °F 26.6 °F 80% 30.21 in 10.0 mi WNW 5.8 mph - N/A   Clear
10:35 PM 32.0 °F 26.4 °F 24.8 °F 75% 30.21 in 10.0 mi WNW 5.8 mph - N/A   Clear
10:55 PM 30.2 °F 24.3 °F 23.0 °F 75% 30.21 in 10.0 mi NW 5.8 mph - N/A   Clear
11:15 PM 30.2 °F 25.4 °F 23.0 °F 75% 30.21 in 10.0 mi NW 4.6 mph - N/A   Clear
11:35 PM 30.2 °F - 23.0 °F 75% 30.21 in 10.0 mi Calm Calm - N/A   Clear
11:55 PM 28.4 °F 24.6 °F 23.0 °F 80% 30.21 in 10.0 mi WNW 3.5 mph - N/A   Scattered Clouds